Погода в Ново-Талицах

Россия / Ивановская область     57°00′25″N   40°51′17″E
темп.,
°C
ветер,
м/с
пор.,
м/с
влажн.,
%
обл.,
%
осадки,
мм/ч
давл.,
гПа
погр.,
м
7 августа, вс
вс700:00+19ююв39680 0.0 1019163
03:00+18ююз36730 0.0 1018120
06:00+19ю27738 0.0 1018174
09:00+26ююз46525 0.0 1018559
12:00+31ююз473513 0.0 10172651
15:00+28юз374696 0.0 1016444
18:00+23зсз6107097 0.4 1017518
21:00+18ссз3794100 2.6 1018235
8 августа, пн
пн800:00+17ссз2698100 0.1 1019200
03:00+16с2498100 0.5 1020161
06:00+15с2497100 0.1 1021178
09:00+15ссв2495100 0.8 1022224
12:00+17ссв2286100 0.1 1022320
15:00+22св116113 0.1 1022822
18:00+22с216146 0.0 1021859
21:00+16ссв248893 0.3 102163
9 августа, вт
вт900:00+15с1196100 2.1 102211
03:00+15ссв1196100 3.1 102136
06:00+15ссв2296100 1.1 102174
09:00+15всв2597100 3.7 1020194
12:00+19св2386100 2.1 1021472
15:00+20св2276100 2.2 1020819
18:00+18с3588100 0.1 1020380
21:00+15с249877 0.9 1020131
10 августа, ср
ср1000:00+15ссз2498100 0.0 1020149
03:00+15ссз1299100 0.1 101996
06:00+15ссз1298100 0.1 1019134
09:00+16ссз229391 0.5 1019266
12:00+18сз338262 0.8 1019661
15:00+20сз337231 2.1 1018917
18:00+21вюв1159100 0.0 102225
21:00+18ссв41056100 0.0 1023347
11 августа, чт
чт1100:00+16св2766100 0.0 1024197
03:00+16св2571100 0.0 1024123
06:00+14всв2380100 0.0 102692
09:00+20всв23560 0.0 1026574
12:00+23св22401 0.0 10261979
15:00+24св22379 0.0 10242110
18:00+22в23500 0.0 1024166
21:00+16ююз1161100 0.0 102511